[[{"header":{"parameterUnit":"m.s-1","parameterCategory":2,"la1":30.2992,"la2":30.254,"lo1":-89.0895,"lo2":-89.0443,"dy":0.0025,"dx":0.0025,"nx":19,"ny":19,"refTime":"2026-05-18T03:00:00:Z","depth":"0","parameterNumber":2,"parameterNumberName":"U-component_of_CURRENTS"},"data":[0,0,0,0.249,0.2491,0.2527,0.2526,0.2563,0.2564,0,0,0,0,0,0,0,0,0,0,0,0.2474,0.2475,0.249,0.2492,0.2527,0.2526,0.2563,0.2564,0,0,0,0,0,0,0,0,0,0,0,0.2474,0.2475,0.2476,0.2492,0.2527,0.2526,0.2563,0.2533,0,0,0,0,0,0,0,0,0,0,0.2498,0.249,0.2475,0.2476,0.2492,0.2527,0.2526,0.2532,0.2535,0.2552,0,0.2572,0,0.2581,0.2568,0.2568,0,0,0,0.247,0.2488,0.2505,0.2476,0.2493,0.2527,0.2505,0.2533,0.2537,0.2556,0.2573,0.2575,0.2582,0.2568,0.2569,0.2751,0.2752,0,0,0.2468,0.2469,0.2502,0.2508,0.2523,0.2504,0.2506,0.2536,0.2544,0.2573,0.2575,0.2582,0.2569,0.2569,0.2749,0.2751,0,0,0,0.2477,0.2468,0.2484,0.2506,0.2521,0.2505,0.2508,0.2542,0.2551,0.2576,0.2583,0.2569,0.257,0.2748,0.275,0.278,0,0,0,0.2475,0.2475,0.2484,0.2483,0.2521,0.2533,0.2514,0.2548,0.2552,0.2583,0.2569,0.257,0.2746,0.2749,0.2775,0.2751,0,0,0,0.2469,0.2474,0.2486,0.2483,0.251,0.2533,0.2542,0.2548,0.2557,0.2568,0.2571,0.2745,0.2748,0.2771,0.2746,0.2777,0,0,0,0.2457,0.2502,0.2486,0.2544,0.251,0.2587,0.2541,0.258,0.2596,0.2569,0.2746,0.275,0.277,0.2744,0.2774,0.2781,0.2794,0,0,0.2508,0.2508,0.2544,0.2532,0.2614,0.2579,0.2663,0.265,0.2661,0.2727,0.2732,0.2777,0.2746,0.2777,0.2989,0.2996,0,0,0,0.2557,0.258,0.2607,0.2645,0.2688,0.2709,0.2713,0.2733,0.2788,0.2693,0.2842,0.2823,0.284,0.2841,0.2848,0.2677,0.2766,0.2766,0.2766,0.2603,0.2628,0.2686,0.2722,0.2767,0.2806,0.2833,0.2868,0.2869,0.292,0.2897,0.3005,0.3012,0.3016,0.2842,0.2975,0.2975,0.2976,0.2976,0.2667,0.2693,0.2721,0.2779,0.2809,0.2864,0.2934,0.2942,0.3014,0.3003,0.3019,0.2935,0.3024,0.2837,0.2979,0.2978,0.2978,0.2977,0.2977,0.2677,0.2692,0.2718,0.2779,0.2821,0.287,0.2918,0.2969,0.3026,0.3051,0.3057,0.3056,0.2842,0.3069,0.3069,0.307,0.307,0.307,0.307,0.2667,0.2698,0.2726,0.278,0.2794,0.2829,0.2903,0.295,0.3036,0.3081,0.3081,0.2879,0.3033,0.2972,0.3071,0.3071,0.3071,0.3071,0.307,0.2695,0.2691,0.2739,0.2756,0.2777,0.276,0.2845,0.2938,0.3018,0.306,0.292,0.3108,0.3088,0.3083,0.3027,0.3133,0.3133,0.3133,0.3133,0.2695,0.2705,0.2742,0.2748,0.2744,0.2728,0.2731,0.2837,0.2891,0.2881,0.2848,0.281,0.2815,0.2775,0.2777,0.2713,0.2737,0.2736,0.2735,0.2716,0.2733,0.2746,0.2744,0.2716,0.267,0.2617,0.2668,0.2752,0.2699,0.2607,0.2624,0.2546,0.2568,0.2488,0.2505,0.2395,0,0]},{"header":{"parameterUnit":"m.s-1","parameterCategory":2,"la1":30.2992,"la2":30.254,"lo1":-89.0895,"lo2":-89.0443,"dy":0.0025,"dx":0.0025,"nx":19,"ny":19,"refTime":"2026-05-18T03:00:00:Z","depth":"0","parameterNumber":3,"parameterNumberName":"V-component_of_CURRENTS"},"data":[0,0,0,0.0006,0.0005,-0.0029,-0.003,-0.0061,-0.0062,0,0,0,0,0,0,0,0,0,0,0,0.0019,0.0019,0.0006,0.0005,-0.0029,-0.003,-0.0061,-0.0062,0,0,0,0,0,0,0,0,0,0,0,0.0019,0.0019,0.0019,0.0005,-0.0029,-0.003,-0.0061,-0.0039,0,0,0,0,0,0,0,0,0,0,-0.0007,0.0,0.0019,0.0019,0.0005,-0.0029,-0.003,-0.0038,-0.004,-0.0041,0,-0.0045,0,-0.0053,-0.0063,-0.0063,0,0,0,0.0002,0.0002,-0.0003,0.0019,0.0005,-0.0029,-0.0015,-0.0039,-0.0042,-0.0044,-0.0045,-0.0047,-0.0053,-0.0063,-0.0063,0.0002,0.0002,0,0,0.0004,0.0008,-0.0001,-0.0004,-0.0002,-0.0013,-0.0016,-0.0041,-0.0045,-0.0046,-0.0048,-0.0054,-0.0063,-0.0064,0.0001,0.0002,0,0,0,0.0012,0.0009,0.0004,-0.0003,-0.001,-0.0014,-0.0017,-0.0044,-0.0044,-0.0048,-0.0054,-0.0064,-0.0064,-0.0,0.0001,0.0059,0,0,0,0.0013,0.0014,0.0005,0.0006,-0.0009,-0.003,-0.0019,-0.0043,-0.0046,-0.0054,-0.0064,-0.0064,-0.0001,0.0,0.0055,0.0088,0,0,0,0.002,0.0015,0.0012,0.0007,-0.0007,-0.003,-0.0032,-0.0044,-0.0049,-0.0063,-0.0064,-0.0002,0.0,0.0052,0.0083,0.0214,0,0,0,0.0023,0.0003,0.0012,-0.0006,-0.0006,-0.0017,-0.0032,-0.0047,-0.0058,-0.0064,-0.0001,0.0001,0.005,0.0079,0.0209,0.0314,0.0346,0,0,-0.0004,-0.0,-0.0009,-0.0002,-0.0004,-0.0012,0.0008,-0.0014,-0.0019,0.0005,0.0006,0.0056,0.0082,0.0213,0.0436,0.0464,0,0,0,-0.0018,-0.0016,-0.0018,-0.0013,-0.0017,0.002,-0.0001,0.0026,0.0067,-0.0014,0.0083,0.0099,0.0179,0.0233,0.0255,0.0271,0.0011,0.001,0.001,-0.0039,-0.0027,-0.0021,0.0001,0.001,0.0044,0.0092,0.0136,0.0097,0.015,0.0165,0.0329,0.0385,0.0404,0.0418,0.0183,0.0183,0.0184,0.0184,-0.0043,-0.0023,0.0008,0.0019,0.007,0.01,0.0193,0.0212,0.0335,0.0262,0.0339,0.0313,0.0433,0.0439,0.0188,0.0187,0.0187,0.0186,0.0186,-0.0035,-0.0018,-0.0009,0.0042,0.0108,0.0157,0.0307,0.0345,0.0404,0.0472,0.0576,0.0575,0.0569,0.0523,0.0524,0.0525,0.0526,0.0526,0.0527,-0.0021,-0.0005,0.0034,0.0077,0.013,0.0232,0.0378,0.0496,0.0642,0.0673,0.0675,0.0645,0.0434,0.0407,0.0538,0.0536,0.0535,0.0534,0.0533,0.0022,0.0021,0.0085,0.0132,0.0269,0.0438,0.0537,0.0798,0.0905,0.1008,0.0953,0.0807,0.0816,0.0797,0.078,0.1,0.1,0.1,0.1001,0.0057,0.0058,0.0172,0.0275,0.0421,0.0555,0.0869,0.1061,0.1177,0.1218,0.1152,0.1072,0.1053,0.1068,0.1043,0.1028,0.1306,0.1307,0.1307,0.0112,0.0134,0.024,0.0335,0.0504,0.0727,0.103,0.1288,0.1385,0.1315,0.1161,0.1148,0.1015,0.0983,0.0984,0.0948,0.0914,0,0]}],[{"header":{"parameterUnit":"m.s-1","parameterCategory":2,"la1":30.2992,"la2":30.254,"lo1":-89.0895,"lo2":-89.0443,"dy":0.0025,"dx":0.0025,"nx":19,"ny":19,"refTime":"2026-05-18T03:00:00:Z","depth":"2","parameterNumber":2,"parameterNumberName":"U-component_of_CURRENTS"},"data":[0,0,0,0.1632,0.1633,0.1708,0.1709,0.1816,0.1817,0,0,0,0,0,0,0,0,0,0,0,0.163,0.1631,0.1632,0.1633,0.1708,0.1709,0.1816,0.1817,0,0,0,0,0,0,0,0,0,0,0,0.1629,0.163,0.1631,0.1633,0.1708,0.1709,0.1816,0.176,0,0,0,0,0,0,0,0,0,0,0.1687,0.1682,0.163,0.1631,0.1634,0.1708,0.1709,0.1757,0.1763,0.1781,0,0.1804,0,0.1797,0.1823,0.1824,0,0,0,0.1648,0.1677,0.1687,0.1632,0.1634,0.1708,0.1678,0.1761,0.1768,0.179,0.1805,0.1809,0.1799,0.1824,0.1824,0.2056,0.2058,0,0,0.1644,0.1651,0.1682,0.1692,0.1668,0.1676,0.168,0.1765,0.1784,0.1806,0.1811,0.1801,0.1825,0.1825,0.2054,0.2056,0,0,0,0.1622,0.1648,0.1657,0.1688,0.1692,0.1678,0.1683,0.1781,0.1782,0.1812,0.1802,0.1825,0.1826,0.2052,0.2055,0.2136,0,0,0,0.162,0.1634,0.1656,0.1662,0.1691,0.1735,0.1698,0.1777,0.1785,0.1801,0.1825,0.1827,0.205,0.2053,0.2129,0.2135,0,0,0,0.1624,0.1634,0.1645,0.1662,0.1684,0.1733,0.174,0.1779,0.1779,0.1824,0.1827,0.2049,0.2053,0.2123,0.2126,0.2207,0,0,0,0.1624,0.1669,0.1646,0.17,0.1683,0.1757,0.174,0.1803,0.1847,0.1826,0.205,0.2055,0.2121,0.2121,0.2201,0.208,0.2096,0,0,0.1679,0.1677,0.1707,0.1687,0.1757,0.1747,0.186,0.1903,0.1927,0.202,0.2026,0.2131,0.2126,0.2205,0.2334,0.2341,0,0,0,0.1722,0.1749,0.1767,0.1802,0.1834,0.1913,0.1941,0.1992,0.212,0.197,0.2198,0.2193,0.224,0.2158,0.2166,0.2075,0.2075,0.2074,0.2074,0.1816,0.1818,0.1883,0.1912,0.1966,0.2037,0.2117,0.2206,0.22,0.2305,0.231,0.2491,0.241,0.2413,0.2384,0.2385,0.2385,0.2385,0.2386,0.1894,0.1932,0.1963,0.2029,0.2102,0.2202,0.2323,0.2356,0.2499,0.2473,0.2516,0.2311,0.2425,0.2393,0.2392,0.2391,0.239,0.2389,0.2389,0.194,0.1961,0.2007,0.2104,0.2222,0.2308,0.2417,0.2498,0.2581,0.2629,0.2555,0.2551,0.2491,0.2672,0.2672,0.2673,0.2673,0.2673,0.2674,0.1968,0.2011,0.2083,0.218,0.225,0.2354,0.2486,0.2551,0.2622,0.2632,0.2631,0.2587,0.2578,0.2511,0.268,0.2679,0.2678,0.2678,0.2677,0.2013,0.204,0.2127,0.2195,0.2312,0.2315,0.2434,0.252,0.264,0.2659,0.2636,0.2635,0.259,0.2581,0.2516,0.2677,0.2677,0.2677,0.2677,0.2041,0.2059,0.2165,0.2234,0.2296,0.2298,0.2225,0.2172,0.2323,0.227,0.2286,0.2167,0.2178,0.2101,0.2104,0.2025,0.2059,0.2057,0.2056,0.2069,0.2098,0.2162,0.2227,0.2274,0.2217,0.1983,0.1625,0.1623,0.2022,0.2081,0.2654,0.2522,0.2522,0.2435,0.2428,0.2313,0,0]},{"header":{"parameterUnit":"m.s-1","parameterCategory":2,"la1":30.2992,"la2":30.254,"lo1":-89.0895,"lo2":-89.0443,"dy":0.0025,"dx":0.0025,"nx":19,"ny":19,"refTime":"2026-05-18T03:00:00:Z","depth":"2","parameterNumber":3,"parameterNumberName":"V-component_of_CURRENTS"},"data":[0,0,0,-0.0371,-0.0372,-0.0434,-0.0435,-0.0552,-0.0553,0,0,0,0,0,0,0,0,0,0,0,-0.0362,-0.0362,-0.0371,-0.0372,-0.0434,-0.0435,-0.0552,-0.0553,0,0,0,0,0,0,0,0,0,0,0,-0.0362,-0.0362,-0.0363,-0.0372,-0.0434,-0.0435,-0.0551,-0.0498,0,0,0,0,0,0,0,0,0,0,-0.0434,-0.0411,-0.0362,-0.0363,-0.0372,-0.0434,-0.0435,-0.0495,-0.0501,-0.053,0,-0.0542,0,-0.0541,-0.056,-0.0561,0,0,0,-0.0384,-0.0405,-0.0423,-0.0363,-0.0373,-0.0434,-0.041,-0.0498,-0.0506,-0.0539,-0.0544,-0.0548,-0.0543,-0.0561,-0.0562,-0.0634,-0.0634,0,0,-0.0381,-0.0374,-0.0418,-0.0428,-0.0393,-0.0407,-0.0411,-0.0502,-0.0512,-0.0544,-0.055,-0.0545,-0.0562,-0.0563,-0.0634,-0.0634,0,0,0,-0.0363,-0.0371,-0.0387,-0.0424,-0.0427,-0.0409,-0.0413,-0.0508,-0.0514,-0.0551,-0.0546,-0.0563,-0.0564,-0.0635,-0.0634,-0.0591,0,0,0,-0.0361,-0.0359,-0.0385,-0.0381,-0.0425,-0.0461,-0.0417,-0.0508,-0.0517,-0.0545,-0.0563,-0.0565,-0.0635,-0.0634,-0.0593,-0.0553,0,0,0,-0.0358,-0.0359,-0.0367,-0.0381,-0.0401,-0.0459,-0.047,-0.051,-0.0514,-0.0561,-0.0565,-0.0635,-0.0634,-0.0594,-0.0556,-0.0484,0,0,0,-0.0347,-0.0355,-0.0368,-0.0374,-0.04,-0.0427,-0.0469,-0.0515,-0.0555,-0.0563,-0.0635,-0.0634,-0.0594,-0.0558,-0.0486,-0.0098,-0.0055,0,0,-0.0347,-0.0355,-0.0357,-0.0369,-0.0368,-0.0419,-0.0427,-0.0508,-0.056,-0.061,-0.0612,-0.0592,-0.0556,-0.0484,-0.0092,-0.0048,0,0,0,-0.0349,-0.0349,-0.0353,-0.0356,-0.0381,-0.039,-0.0465,-0.0492,-0.0557,-0.058,-0.0602,-0.058,-0.0536,-0.0308,-0.0274,-0.0634,-0.0634,-0.0634,-0.0634,-0.0342,-0.0339,-0.033,-0.0332,-0.0348,-0.0385,-0.0396,-0.0449,-0.0531,-0.0553,-0.0553,-0.0479,-0.0237,-0.0206,-0.0574,-0.0574,-0.0574,-0.0574,-0.0573,-0.0315,-0.03,-0.0297,-0.0297,-0.0306,-0.0333,-0.0355,-0.0402,-0.0423,-0.0511,-0.047,-0.0284,-0.0165,-0.057,-0.0571,-0.0571,-0.0572,-0.0572,-0.0572,-0.0297,-0.0284,-0.0296,-0.0278,-0.0284,-0.0315,-0.0266,-0.0331,-0.0373,-0.0351,-0.0106,-0.0102,-0.0419,-0.0353,-0.0353,-0.0352,-0.0352,-0.0351,-0.0351,-0.0273,-0.027,-0.0257,-0.0258,-0.0256,-0.025,-0.0248,-0.0193,-0.0051,-0.0004,-0.0001,-0.0403,-0.0411,-0.0406,-0.0344,-0.0345,-0.0346,-0.0347,-0.0347,-0.0226,-0.024,-0.02,-0.0193,-0.0156,0.0005,0.0002,0.0294,0.03,0.0475,0.023,0.0214,0.0251,0.0228,0.0249,0.0476,0.0476,0.0476,0.0476,-0.0192,-0.0195,-0.013,-0.0079,0.0003,0.0132,0.0562,0.0774,0.08,0.0804,0.0787,0.0803,0.0768,0.0829,0.0791,0.0819,0.1195,0.1195,0.1195,-0.014,-0.0124,-0.0066,-0.0022,0.0083,0.0363,0.0922,0.122,0.1169,0.1199,0.0659,0.0573,0.0558,0.0517,0.0571,0.0525,0.0556,0,0]}],[{"header":{"parameterUnit":"m.s-1","parameterCategory":2,"la1":30.2992,"la2":30.254,"lo1":-89.0895,"lo2":-89.0443,"dy":0.0025,"dx":0.0025,"nx":19,"ny":19,"refTime":"2026-05-18T03:00:00:Z","depth":"4","parameterNumber":2,"parameterNumberName":"U-component_of_CURRENTS"},"data":[0,0,0,0.0215,0.0216,0.0268,0.0269,0.0398,0.04,0,0,0,0,0,0,0,0,0,0,0,0.0195,0.0195,0.0215,0.0216,0.0268,0.0269,0.0398,0.04,0,0,0,0,0,0,0,0,0,0,0,0.0195,0.0195,0.0196,0.0217,0.0268,0.0269,0.0398,0.0342,0,0,0,0,0,0,0,0,0,0,0.0284,0.0246,0.0195,0.0196,0.0217,0.0268,0.0269,0.0339,0.0346,0.0393,0,0.0401,0,0.0408,0.041,0.041,0,0,0,0.0215,0.024,0.0266,0.0196,0.0217,0.0268,0.0244,0.0342,0.035,0.0403,0.0403,0.0407,0.041,0.0411,0.0412,0.0547,0.0547,0,0,0.0212,0.0196,0.0261,0.0271,0.0233,0.0243,0.0246,0.0346,0.035,0.0403,0.041,0.0412,0.0412,0.0413,0.0547,0.0547,0,0,0,0.0205,0.0194,0.0216,0.0266,0.0273,0.0244,0.0248,0.0345,0.0356,0.0412,0.0414,0.0413,0.0415,0.0546,0.0547,0.0568,0,0,0,0.0203,0.019,0.0214,0.0204,0.0271,0.0299,0.0245,0.0349,0.036,0.0413,0.0413,0.0416,0.0546,0.0547,0.0566,0.0612,0,0,0,0.0192,0.0189,0.0198,0.0204,0.0228,0.0297,0.0313,0.0351,0.0362,0.0411,0.0417,0.0546,0.0546,0.0565,0.0608,0.068,0,0,0,0.017,0.0153,0.0197,0.0184,0.0228,0.0264,0.0312,0.036,0.04,0.0414,0.0546,0.0547,0.0565,0.0606,0.0677,0.0536,0,0,0,0.0128,0.0147,0.014,0.0181,0.02,0.0257,0.0301,0.0385,0.0429,0.0517,0.0519,0.0567,0.0608,0.0679,0.0583,0,0,0,0,0.0114,0.0119,0.013,0.0158,0.02,0.0275,0.0344,0.0397,0.0498,0.0457,0.0577,0.0604,0.0647,0.0556,0.0551,0.055,0.055,0.055,0.055,0.0071,0.0095,0.0102,0.0151,0.0193,0.0302,0.0381,0.0476,0.0503,0.0558,0.0626,0.0707,0.0608,0.0614,0.0614,0.0614,0.0614,0.0614,0.0614,0.0046,0.0057,0.0112,0.0136,0.023,0.0305,0.0454,0.0515,0.0674,0.0654,0.0694,0.059,0.0616,0.0616,0.0616,0.0615,0.0615,0.0615,0.0615,0.0043,0.0045,0.0076,0.0132,0.0237,0.0352,0.0501,0.0618,0.072,0.0789,0.0725,0.0753,0.0748,0.0818,0.0818,0.0819,0.0819,0.082,0.082,0.0024,0.0043,0.0073,0.0144,0.0209,0.0351,0.0552,0.0644,0.0754,0.0775,0.0825,0.0777,0.0771,0.0762,0.0828,0.0826,0.0825,0.0825,0.0824,-0.0011,0.002,0.0042,0.0093,0.0225,0.0319,0.0506,0.0647,0.075,0.0783,0.0766,0.0767,0.0765,0.076,0.075,0.0815,0.0813,0.0812,0,-0.0027,-0.0013,0.002,0.0072,0.0167,0.0297,0.0427,0.0539,0.0651,0.0643,0.0727,0.0703,0.0704,0.0691,0.0684,0.0667,0,0,0,-0.005,-0.0034,-0.0023,0.0033,0.013,0.03,0.0459,0.0488,0.0655,0.0662,0.0774,0.0784,0.0708,0.0851,0.0851,0.0843,0.0831,0,0]},{"header":{"parameterUnit":"m.s-1","parameterCategory":2,"la1":30.2992,"la2":30.254,"lo1":-89.0895,"lo2":-89.0443,"dy":0.0025,"dx":0.0025,"nx":19,"ny":19,"refTime":"2026-05-18T03:00:00:Z","depth":"4","parameterNumber":3,"parameterNumberName":"V-component_of_CURRENTS"},"data":[0,0,0,0.0341,0.0342,0.0373,0.0374,0.0417,0.0417,0,0,0,0,0,0,0,0,0,0,0,0.0326,0.0327,0.0341,0.0342,0.0373,0.0374,0.0416,0.0417,0,0,0,0,0,0,0,0,0,0,0,0.0326,0.0327,0.0327,0.0342,0.0373,0.0374,0.0416,0.039,0,0,0,0,0,0,0,0,0,0,0.0358,0.0357,0.0327,0.0327,0.0342,0.0373,0.0374,0.0389,0.0392,0.0405,0,0.0414,0,0.0422,0.0421,0.0421,0,0,0,0.0334,0.0355,0.0356,0.0327,0.0342,0.0373,0.0357,0.039,0.0394,0.0409,0.0415,0.0417,0.0423,0.0421,0.0421,0.0517,0.0518,0,0,0.0332,0.0339,0.0353,0.0358,0.0357,0.0356,0.0358,0.0392,0.0403,0.0415,0.0418,0.0424,0.0421,0.0422,0.0517,0.0518,0,0,0,0.0332,0.0338,0.0338,0.0356,0.0365,0.0357,0.0359,0.0401,0.04,0.0418,0.0424,0.0422,0.0422,0.0516,0.0517,0.0556,0,0,0,0.0331,0.0338,0.0337,0.0343,0.0364,0.0387,0.0368,0.0397,0.0401,0.0424,0.0422,0.0423,0.0515,0.0517,0.0553,0.0584,0,0,0,0.0324,0.0338,0.0341,0.0343,0.0359,0.0386,0.0386,0.0398,0.0405,0.0421,0.0423,0.0515,0.0516,0.0551,0.0579,0.0579,0,0,0,0.0329,0.0367,0.0342,0.0396,0.0359,0.0422,0.0386,0.0439,0.0461,0.0422,0.0515,0.0517,0.055,0.0577,0.0577,0.0527,0,0,0,0.0382,0.0373,0.0408,0.0387,0.045,0.0416,0.0485,0.0496,0.0484,0.0501,0.0503,0.0554,0.0579,0.0579,0.0619,0,0,0,0,0.0429,0.0448,0.0467,0.0495,0.0521,0.053,0.0541,0.0538,0.0553,0.0505,0.0575,0.059,0.0588,0.0554,0.0525,0.0524,0.0524,0.0524,0.0524,0.0486,0.0501,0.0556,0.0573,0.0609,0.0622,0.063,0.0624,0.0616,0.0628,0.0636,0.0686,0.0655,0.0645,0.0646,0.0646,0.0646,0.0646,0.0646,0.0552,0.058,0.0603,0.0668,0.0675,0.0729,0.0717,0.0702,0.071,0.0692,0.0687,0.0617,0.065,0.065,0.0649,0.0648,0.0648,0.0648,0.0648,0.0574,0.0588,0.0636,0.0709,0.077,0.0795,0.0823,0.0804,0.0761,0.0764,0.0713,0.0713,0.069,0.076,0.076,0.076,0.076,0.076,0.076,0.057,0.0611,0.0673,0.0755,0.0821,0.0883,0.0892,0.0864,0.0813,0.0768,0.0785,0.0724,0.072,0.0698,0.0763,0.0762,0.0762,0.0762,0.0762,0.0587,0.0611,0.0694,0.0767,0.0898,0.0929,0.0959,0.0867,0.0831,0.0759,0.0749,0.0749,0.0726,0.0722,0.0697,0.0765,0.0765,0.0764,0,0.0589,0.0608,0.0714,0.0816,0.0898,0.0955,0.0913,0.0863,0.0773,0.0779,0.08,0.0792,0.079,0.0767,0.0763,0.0737,0,0,0,0.0596,0.063,0.0702,0.0809,0.0905,0.089,0.0893,0.0846,0.0831,0.0727,0.0754,0.0757,0.0735,0.077,0.0734,0.073,0.0691,0,0]}]]